Regional Weather Roundup
Issued by NWS

Home | Current Version | Previous Version | Text Only | Print | Product List | Glossary Off
Versions: 1 2 3 4 5 6 7 8 9 10 11 12 13 14 15 16 17 18 19 20 21 22 23 24 25 26 27 28 29 30 31 32 33 34 35 36 37 38 39 40 41 42 43 44 45 46 47 48 49 50

000
ASUS43 KBIS 280920
RWRND

NORTH DAKOTA REGIONAL WEATHER ROUNDUP
NATIONAL WEATHER SERVICE BISMARCK ND
300 AM CST SUN DEC 28 2014

NOTE: "FAIR" INDICATES FEW OR NO CLOUDS BELOW 12,000 FEET WITH NO
SIGNIFICANT WEATHER AND/OR OBSTRUCTIONS TO VISIBILITY.


NDZ001>003-009>011-017-281000-
NORTHWEST NORTH DAKOTA

CITY           SKY/WX    TMP DP  RH WIND       PRES   REMARKS
WILLISTON      CLOUDY    16  12  84 NE9       30.01R WCI   4
MINOT          CLOUDY     1  -6  72 N10       30.09R WCI -15
MINOT AFB      CLOUDY     0  -5  80 NE8       30.10R WCI -14
$$

NDZ018>021-031>035-040>046-281000-
SOUTHWEST NORTH DAKOTA

CITY           SKY/WX    TMP DP  RH WIND       PRES   REMARKS
BISMARCK       LGT SNOW  16  14  92 NE3       30.05R FOG
DICKINSON      CLOUDY    19  15  84 E6        29.94R WCI  11
GARRISON         N/A     11   8  88 NE7       30.05R WCI   0
HETTINGER ARPT CLEAR      8   4  83 CALM      29.96R
$$

NDZ004>008-012>016-024-026-027-054-281000-
NORTHEAST NORTH DAKOTA

CITY           SKY/WX    TMP DP  RH WIND       PRES   REMARKS
GRAND FORKS    CLOUDY     4  -2  76 N16       30.18R WCI -15
GRND FRKS AFB  CLOUDY     3   0  85 N13       30.19R WCI -14
DEVILS LAKE    CLOUDY     1  -6  71 NE6       30.11R WCI -10
$$

NDZ022-023-025-028>030-036>039-047>053-281000-
SOUTHEAST NORTH DAKOTA

CITY           SKY/WX    TMP DP  RH WIND       PRES   REMARKS
FARGO          CLOUDY    13   8  81 N18       30.12R WCI  -4
JAMESTOWN      CLOUDY    13   9  84 NE9       30.07R WCI   1
$$



USA.gov is the U.S. government's official web portal to all federal, state and local government web resources and services.